Weather History for Milwaukee Timmerman, WI

Change the Weather History Date:

Saturday, October 6, 2012

  Actual Average Record
Temperature  
Mean Temperature 42 °F -  
Max Temperature 48 °F 63 °F 90 °F (1963)
Min Temperature 35 °F 46 °F 21 °F (1952)
Degree Days  
Heating Degree Days 24    
Moisture  
Dew Point 25 °F    
Average Humidity 55    
Maximum Humidity 65    
Minimum Humidity 40    
Precipitation  
Precipitation 0.00 in - - ()
Sea Level Pressure  
Sea Level Pressure 30.09 in    
Wind  
Wind Speed 9 mph (WNW)    
Max Wind Speed 16 mph    
Max Gust Speed 25 mph    
Visibility 10 miles    
Events      
Averages and records for this station are not official NWS values.
T = Trace of Precipitation, MM = Missing Value Source: NWS Daily Summary

Daily Weather History Graph

Daily Weather History Graph

Search for Another Location

Airport:

Trip Planner

Search our weather history database for the weather conditions in past years. The results will help you decide how hot, cold, wet, or windy it might be!

Date:

Astronomy

Oct. 06, 2012 Rise Set
Actual Time 6:55 AM CDT 6:23 PM CDT
Civil Twilight 6:27 AM CDT 6:52 PM CDT
Nautical Twilight 5:54 AM CDT 7:24 PM CDT
Astronomical Twilight 5:21 AM CDT 7:57 PM CDT
Moon 10:32 PM CDT (10/6) 12:57 PM CDT (10/6)
Length of Visible Light 12h 24m
Length of Day
11h 27m
Waning Gibbous, 65% of the Moon is Illuminated
Oct 6
Waning Gibbous
Oct 8
Last Quarter
Oct 15
New
Oct 21
First Quarter
Oct 29
Full

Hourly Weather History & Observations

Time (CDT) Temp. Windchill Dew Point Humidity Pressure Visibility Wind Dir Wind Speed Gust Speed Precip Events Conditions
12:15 AM 37.4 °F 32.8 °F 26.6 °F 65% 30.03 in 10.0 mi West 5.8 mph - N/A   Mostly Cloudy
12:35 AM 39.2 °F 33.6 °F 26.6 °F 61% 30.03 in 10.0 mi WNW 8.1 mph - N/A   Overcast
12:55 AM 41.0 °F 35.8 °F 26.6 °F 57% 30.03 in 10.0 mi NW 8.1 mph - N/A   Overcast
1:15 AM 41.0 °F 32.8 °F 24.8 °F 53% 30.03 in 10.0 mi NW 16.1 mph 25.3 mph N/A   Overcast
1:55 AM 41.0 °F 33.5 °F 23.0 °F 49% 30.03 in 10.0 mi NW 13.8 mph - N/A   Overcast
2:15 AM 39.2 °F 31.6 °F 21.2 °F 49% 30.03 in 10.0 mi WNW 12.7 mph 19.6 mph N/A   Scattered Clouds
2:35 AM 37.4 °F 30.3 °F 21.2 °F 52% 30.03 in 10.0 mi WNW 10.4 mph - N/A   Clear
2:55 AM 37.4 °F 30.3 °F 21.2 °F 52% 30.03 in 10.0 mi WNW 10.4 mph - N/A   Clear
3:15 AM 37.4 °F 30.8 °F 21.2 °F 52% 30.04 in 10.0 mi West 9.2 mph - N/A   Clear
3:35 AM 37.4 °F 32.1 °F 21.2 °F 52% 30.03 in 10.0 mi West 6.9 mph - N/A   Clear
3:55 AM 35.6 °F 30.7 °F 23.0 °F 60% 30.03 in 10.0 mi West 5.8 mph - N/A   Clear
4:35 AM 35.6 °F 30.7 °F 23.0 °F 60% 30.03 in 10.0 mi West 5.8 mph - N/A   Clear
4:55 AM 35.6 °F 29.2 °F 23.0 °F 60% 30.04 in 10.0 mi West 8.1 mph - N/A   Clear
5:15 AM 35.6 °F 29.9 °F 23.0 °F 60% 30.04 in 10.0 mi West 6.9 mph - N/A   Clear
5:35 AM 35.6 °F 28.0 °F 23.0 °F 60% 30.05 in 10.0 mi West 10.4 mph - N/A   Clear
5:55 AM 35.6 °F 28.6 °F 23.0 °F 60% 30.05 in 10.0 mi West 9.2 mph - N/A   Clear
6:15 AM 35.6 °F 28.6 °F 23.0 °F 60% 30.06 in 10.0 mi West 9.2 mph - N/A   Scattered Clouds
6:35 AM 35.6 °F 28.6 °F 24.8 °F 65% 30.06 in 10.0 mi West 9.2 mph - N/A   Scattered Clouds
6:45 AM 37.4 °F 31.4 °F 24.8 °F 60% 30.06 in 10.0 mi West 8.1 mph - N/A   Mostly Cloudy
6:55 AM 35.6 °F 29.2 °F 24.8 °F 65% 30.06 in 10.0 mi West 8.1 mph - N/A   Overcast
7:45 AM 39.2 °F 33.0 °F 24.8 °F 56% 30.08 in 10.0 mi WNW 9.2 mph - N/A   Overcast
8:45 AM 39.2 °F 33.6 °F 26.6 °F 61% 30.09 in 10.0 mi WNW 8.1 mph 17.3 mph N/A   Overcast
12:45 PM 46.4 °F 39.8 °F 24.8 °F 43% 30.11 in 10.0 mi NNW 16.1 mph - N/A   Mostly Cloudy
1:50 PM 48.2 °F - 24.8 °F 40% 30.11 in 10.0 mi North 15.0 mph 19.6 mph N/A   Overcast
2:50 PM 46.4 °F 42.9 °F 23.0 °F 40% 30.11 in 10.0 mi WNW 6.9 mph - N/A   Overcast
3:45 PM 46.4 °F 41.1 °F 24.8 °F 43% 30.12 in 10.0 mi NW 11.5 mph 16.1 mph N/A   Overcast
4:45 PM 44.6 °F 38.1 °F 24.8 °F 46% 30.13 in 10.0 mi NW 13.8 mph - N/A   Overcast
5:45 PM 44.6 °F 38.8 °F 24.8 °F 46% 30.14 in 10.0 mi WNW 11.5 mph - N/A   Overcast
6:45 PM 44.6 °F 39.7 °F 24.8 °F 46% 30.15 in 10.0 mi WNW 9.2 mph - N/A   Overcast
7:45 PM 42.8 °F 39.3 °F 24.8 °F 49% 30.16 in 10.0 mi WNW 5.8 mph - N/A   Overcast
8:45 PM 42.8 °F 38.0 °F 24.8 °F 49% 30.17 in 10.0 mi WNW 8.1 mph - N/A   Overcast
9:15 PM 42.8 °F 38.6 °F 26.6 °F 53% 30.17 in 10.0 mi WNW 6.9 mph - N/A   Overcast
9:35 PM 41.0 °F 35.8 °F 26.6 °F 57% 30.17 in 10.0 mi WNW 8.1 mph - N/A   Overcast
9:55 PM 41.0 °F 38.0 °F 26.6 °F 57% 30.17 in 10.0 mi WNW 4.6 mph - N/A   Overcast
10:15 PM 41.0 °F 38.0 °F 26.6 °F 57% 30.17 in 10.0 mi WNW 4.6 mph - N/A   Overcast
10:35 PM 41.0 °F 39.0 °F 26.6 °F 57% 30.17 in 10.0 mi West 3.5 mph - N/A   Overcast
10:55 PM 41.0 °F 37.1 °F 26.6 °F 57% 30.17 in 10.0 mi WNW 5.8 mph - N/A   Overcast
11:15 PM 41.0 °F 38.0 °F 26.6 °F 57% 30.17 in 10.0 mi WNW 4.6 mph - N/A   Overcast
11:35 PM 41.0 °F 38.0 °F 26.6 °F 57% 30.17 in 10.0 mi WNW 4.6 mph - N/A   Overcast
11:55 PM 41.0 °F 37.1 °F 26.6 °F 57% 30.17 in 10.0 mi WNW 5.8 mph - N/A   Overcast